Terminal Aerodrome Forecast
Issued by NWS Portland, OR

Home | Current Version | Previous Version | Text Only | Print | Product List | Glossary On
Versions: 1 2 3 4 5 6 7 8 9 10 11 12 13 14 15 16 17 18 19 20 21 22 23 24 25 26 27 28
000
FTUS46 KPQR 221738
TAFHIO
TAF
KHIO 221738Z 2218/2318 00000KT P6SM BKN025
     FM221900 33005KT P6SM SCT035
     FM230600 VRB02KT P6SM FEW200=

USA.gov is the U.S. government's official web portal to all federal, state and local government web resources and services.